GEFSCGP_500_meanwind_000.txt.gz
Wind_Speed
11 13 14 14 14 15 14 14 13 15 15 15 17 20 23 27 31 32 34 33 29 29 25 29 32 33 36 38 38 37 35 34 36 37 39 40 41 42 42 41 41 42 43 42
12 12 12 12 11 12 13 18 21 22 21 22 26 27 29 32 34 34 35 32 29 27 27 29 32 39 40 36 36 36 36 34 35 36 37 37 37 38 39 39 40 39 39 40
9 11 8 8 8 12 16 20 24 29 26 26 28 29 32 32 33 35 34 31 28 28 27 29 37 41 36 32 33 33 33 33 35 37 37 36 35 34 34 35 35 35 35 35
8 8 6 8 12 18 21 23 22 25 30 32 32 33 34 35 36 32 30 28 26 28 29 34 37 36 34 35 38 38 38 36 35 36 37 37 37 37 37 36 36 37 37 37
8 9 10 11 13 17 19 19 21 21 23 30 35 39 34 32 29 25 25 25 26 25 29 32 32 31 32 36 38 40 44 44 42 40 39 39 40 40 40 40 39 38 38 39
4 5 7 8 10 11 9 7 10 14 17 21 23 26 22 22 20 22 23 24 28 29 33 34 35 34 31 31 31 32 36 39 41 43 43 42 42 42 42 41 40 40 40 40
4 6 9 9 7 10 9 7 4 6 11 16 16 17 17 18 18 20 24 28 32 33 35 37 33 30 28 29 31 32 34 36 38 41 43 44 44 44 45 44 43 42 41 41
8 7 9 10 9 12 11 9 8 7 9 13 16 18 17 19 23 26 29 30 30 31 30 31 32 33 33 34 35 35 34 33 34 37 39 41 43 44 44 45 46 45 44 43
10 8 13 14 12 12 10 9 8 9 9 9 17 21 19 21 23 25 26 26 25 25 28 32 34 34 34 36 38 38 35 35 35 36 37 39 40 42 43 44 45 45 45 45
10 8 13 15 12 10 8 9 12 11 11 12 14 18 22 22 24 24 25 26 28 29 30 31 31 31 32 34 35 36 35 35 36 37 37 37 38 39 39 40 41 42 41 41
12 8 10 13 12 10 8 9 10 12 14 15 12 10 15 20 24 26 27 28 29 31 32 33 34 34 34 34 37 37 37 39 39 38 37 37 37 36 37 37 37 38 39 39
13 10 7 12 14 15 12 14 16 16 19 23 22 12 18 24 27 30 31 33 35 37 39 39 39 39 37 35 36 37 36 38 40 39 37 38 37 35 33 33 34 34 33 34
14 12 11 13 15 16 17 19 20 21 22 23 23 22 29 29 31 34 36 37 38 41 43 45 44 43 44 42 39 39 39 36 36 37 37 38 37 35 31 30 30 30 30 30
11 13 14 14 16 20 19 20 22 24 25 24 23 26 34 33 34 37 38 40 41 43 47 49 47 46 48 48 45 41 40 39 35 34 35 36 36 35 31 29 29 29 28 24
12 13 16 17 20 23 22 21 24 28 29 29 28 32 37 37 36 38 40 43 47 49 50 51 50 50 49 50 49 46 44 41 38 33 32 33 34 35 31 28 28 26 21 18
18 17 19 17 21 23 22 25 28 30 31 33 36 37 37 40 40 43 47 49 50 49 50 52 53 53 53 52 49 47 48 44 40 37 32 30 33 35 31 27 26 22 18 16
21 23 24 21 22 23 25 27 28 30 31 32 34 37 38 41 45 50 54 58 56 58 62 65 63 58 57 55 52 50 49 44 41 38 35 31 33 35 32 27 25 24 20 14
24 25 27 26 26 26 30 32 32 33 35 36 38 41 44 48 51 52 58 63 65 67 67 71 68 62 57 56 58 55 50 45 41 39 37 31 31 32 32 28 24 24 21 18
31 32 32 32 32 30 31 33 33 36 39 39 42 45 47 50 56 56 62 68 72 74 72 73 72 69 66 64 66 66 61 51 42 40 38 32 32 30 31 28 24 23 22 20
33 32 32 33 35 36 34 36 40 43 43 41 47 50 55 56 58 58 64 68 75 76 73 74 76 73 71 71 70 68 68 60 50 44 40 37 34 31 31 29 26 23 22 21
31 32 34 36 39 40 40 39 39 43 45 49 54 54 62 64 62 68 68 75 82 79 79 80 77 75 77 77 75 74 68 62 54 50 46 41 39 35 30 28 28 26 21 19
36 38 38 39 40 40 39 40 40 47 49 53 59 63 67 68 70 74 77 80 80 79 79 77 72 69 71 74 74 72 66 62 60 54 47 40 38 34 27 28 29 28 21 19
34 35 35 37 39 41 42 44 47 52 55 59 63 68 72 75 77 78 80 81 80 78 77 66 58 59 63 65 62 61 60 62 58 55 52 46 38 35 31 33 31 30 23 18
32 33 35 38 40 42 45 49 53 57 60 65 69 70 74 79 83 84 82 81 77 68 56 56 58 60 65 64 58 52 50 60 59 54 50 46 45 35 34 36 34 30 24 20
32 32 35 39 43 47 50 55 60 64 66 71 73 75 75 80 78 76 71 62 51 48 53 50 52 58 63 61 56 47 38 51 58 56 54 47 41 38 35 35 35 32 26 23
31 34 38 43 50 55 60 65 70 73 75 79 78 75 70 65 64 60 52 46 45 48 50 52 53 53 54 54 52 45 37 37 50 57 51 50 50 43 38 38 36 35 30 26

GEFSCGP_500_meanwind_006.txt.gz
Wind_Speed
15 17 20 22 23 26 29 32 33 35 36 37 35 35 34 31 31 30 29 27 25 27 30 32 31 29 27 26 27 28 29 29 26 26 26 27 28 29 30 32 34 35 37 37
10 13 15 17 20 24 28 30 30 32 32 32 32 32 32 29 27 28 28 29 29 31 32 32 29 27 27 28 30 31 31 29 28 28 29 29 30 31 33 34 35 35 35 35
7 10 12 14 17 20 25 28 30 31 31 30 31 31 31 29 29 30 30 31 32 33 35 33 29 27 28 32 34 32 30 29 29 28 28 29 30 31 32 33 34 36 37 37
7 9 12 13 15 17 20 23 25 27 28 30 31 32 32 33 33 34 34 34 34 36 35 32 29 28 30 32 31 29 29 30 31 30 29 28 28 29 30 31 32 34 37 39
8 10 13 13 14 16 18 19 21 23 25 28 32 36 37 37 38 38 38 37 36 32 28 26 27 28 29 29 28 28 28 29 27 24 22 22 24 26 29 31 33 34 36 37
4 5 7 6 7 10 12 13 16 17 18 20 24 29 32 33 35 36 34 31 28 27 25 26 27 26 26 27 27 27 26 23 20 18 18 21 23 25 28 30 32 35 36 37
3 5 7 8 9 9 11 13 15 15 15 16 18 19 19 20 22 23 23 24 25 27 27 26 23 23 25 27 26 24 22 21 20 22 24 25 27 28 29 30 33 35 36 36
3 4 7 9 11 11 11 12 14 15 15 15 16 15 15 16 18 20 22 24 25 25 22 21 21 23 25 25 23 22 22 23 24 26 28 30 31 32 32 33 34 36 37 37
6 6 10 10 10 11 11 11 12 14 15 16 15 14 14 16 18 21 25 26 25 22 20 21 22 25 26 26 26 26 27 28 29 30 32 34 35 34 34 34 34 36 37 38
6 7 10 12 10 9 10 11 13 17 19 18 16 15 16 17 19 22 24 24 23 23 24 26 27 29 30 32 32 32 33 33 32 33 34 36 38 38 37 36 36 35 37 39
10 11 12 14 13 13 14 15 16 18 20 23 21 19 22 23 25 27 28 29 31 31 32 33 35 37 38 39 40 40 40 38 35 34 35 38 40 42 40 39 38 37 38 40
12 13 14 17 18 17 18 20 22 24 25 26 28 27 25 26 27 30 33 35 37 38 39 40 43 44 46 47 48 49 49 48 44 40 40 41 41 42 43 41 39 38 38 39
12 13 14 15 19 20 22 23 26 28 29 30 31 34 33 33 33 34 37 39 41 42 44 46 48 49 51 52 53 54 55 55 53 50 46 44 43 42 42 41 39 38 38 38
12 13 16 19 22 23 23 25 28 31 33 33 33 35 36 38 39 41 42 43 44 45 47 49 52 53 54 55 57 58 58 59 60 58 54 49 45 42 41 41 40 40 39 38
15 16 18 21 24 25 25 25 26 29 32 34 34 35 36 38 40 43 45 46 48 50 52 54 56 59 60 60 60 61 61 61 61 61 59 55 50 45 44 44 44 43 41 40
20 22 22 23 26 27 28 29 29 30 32 34 36 37 38 39 42 45 48 50 52 55 57 59 60 61 60 59 58 58 58 59 61 62 61 59 55 51 50 49 48 46 44 41
24 26 26 25 25 27 28 29 30 32 34 37 39 40 41 43 47 51 54 54 55 58 61 62 61 60 62 65 67 69 69 68 69 69 68 65 62 59 56 52 48 46 45 42
27 29 29 28 28 31 33 34 36 38 39 41 42 42 44 47 51 54 55 55 56 59 62 65 70 74 77 79 79 79 78 77 76 75 73 70 66 62 57 52 47 46 45 42
28 29 30 31 32 34 36 39 41 43 44 44 45 46 49 53 57 59 65 72 75 76 78 82 85 87 87 87 86 85 84 83 81 79 76 72 68 62 55 50 47 46 45 42
28 29 31 32 35 36 38 40 42 43 45 48 50 53 56 60 64 66 71 75 78 81 83 86 87 89 89 90 90 88 85 82 79 75 71 66 62 56 51 47 46 47 46 43
26 27 29 31 33 36 37 38 40 44 49 53 57 62 66 69 73 75 77 80 83 86 88 88 87 85 81 78 76 75 72 69 65 61 56 51 48 46 44 44 45 46 45 44
29 29 29 30 32 35 38 42 46 51 57 61 66 70 74 78 81 83 84 85 85 83 79 74 70 64 58 55 54 52 49 47 46 43 40 39 40 40 40 41 42 45 47 45
30 30 31 32 36 41 46 51 56 61 65 70 74 78 81 83 83 82 79 73 66 59 55 52 49 45 41 39 39 39 39 39 37 35 34 35 38 41 42 43 44 46 50 47
30 33 35 39 44 48 53 58 63 68 72 76 79 80 79 76 72 66 61 56 50 46 44 43 42 39 37 36 35 36 37 38 37 35 35 37 39 42 43 45 45 47 52 51
34 38 41 46 50 54 58 63 68 73 77 80 79 74 69 64 59 55 50 46 44 44 44 43 43 42 41 41 41 40 41 41 39 38 37 39 40 40 40 40 41 47 54 54
37 40 45 50 55 60 63 68 73 77 79 77 72 64 56 51 47 45 46 47 48 48 48 49 51 52 52 51 50 48 47 46 44 42 39 38 37 37 35 32 34 45 53 56

GEFSCGP_500_meanwind_012.txt.gz
Wind_Speed
11 11 12 16 18 22 25 28 29 35 38 39 41 42 43 43 41 39 36 34 33 33 33 33 34 35 33 33 34 33 32 31 31 31 29 27 24 22 21 20 19 18 18 19
5 6 9 10 12 14 17 20 22 29 34 36 37 38 38 37 35 32 30 30 31 32 32 34 35 35 36 36 36 34 33 31 30 29 26 23 19 17 16 15 13 12 13 14
2 7 6 7 7 7 9 12 16 20 24 24 27 27 29 30 29 28 27 28 29 30 32 34 36 38 38 38 37 35 33 32 30 27 23 19 15 13 12 12 12 13 13 14
5 6 6 7 8 9 9 13 14 15 17 16 21 21 20 26 25 26 27 28 30 32 34 37 38 40 40 39 36 34 34 33 30 26 23 19 16 15 15 16 17 17 17 17
7 8 8 8 10 10 11 13 13 14 15 15 17 18 15 22 23 24 27 30 32 35 38 39 39 39 38 37 36 35 35 34 30 27 24 22 20 21 21 22 22 22 21 19
6 6 7 8 9 9 11 12 12 12 13 13 15 14 13 18 19 19 21 25 28 32 35 36 36 35 35 34 34 35 35 33 30 28 27 26 25 26 27 27 27 26 23 21
6 7 7 8 9 11 13 13 11 10 10 12 16 13 16 17 18 18 20 22 24 26 28 31 32 33 32 32 34 34 34 32 31 30 30 30 29 29 30 30 29 27 26 24
6 8 10 9 9 10 11 11 10 10 11 12 15 15 18 19 19 19 20 22 24 26 27 30 32 32 33 33 34 35 35 35 34 34 33 33 33 32 31 31 30 29 28 26
6 8 11 9 8 7 7 8 10 12 12 13 12 16 21 21 22 22 22 24 26 28 30 32 33 35 36 36 37 38 39 39 39 39 38 37 36 35 34 33 33 32 31 29
6 6 9 8 6 6 9 10 11 12 14 14 15 17 21 21 23 24 26 29 31 34 36 37 38 39 40 42 43 44 45 46 46 46 45 43 42 40 39 38 37 36 35 32
5 5 7 9 9 12 13 14 15 16 18 19 19 22 23 24 26 28 31 33 36 39 41 42 43 44 46 47 48 49 50 51 51 51 51 50 48 46 44 43 41 40 38 35
6 7 9 11 13 15 17 18 20 21 23 25 26 30 27 28 30 32 34 36 38 40 43 45 47 49 50 51 52 53 54 55 56 56 56 56 55 52 50 48 45 43 41 38
9 11 13 15 21 22 22 23 24 25 26 28 29 34 33 35 36 37 38 40 41 43 44 47 49 50 52 53 54 55 56 58 60 61 62 61 61 59 56 54 52 48 44 40
13 15 17 18 20 24 26 27 27 27 28 30 32 38 39 40 41 42 42 43 43 44 46 48 50 52 54 56 58 60 61 62 64 66 67 67 67 67 64 62 59 54 48 43
16 18 20 21 23 26 27 28 28 30 31 33 36 39 41 43 44 45 45 45 46 48 51 52 54 56 59 62 65 67 69 70 72 74 76 76 76 75 71 66 61 58 53 48
18 19 21 22 24 27 29 29 31 32 33 36 38 41 43 46 48 49 51 53 56 59 62 65 66 67 69 70 72 74 76 77 76 78 79 78 75 74 73 69 65 62 58 54
19 21 22 24 26 29 30 29 32 33 34 36 40 45 48 51 54 57 59 62 65 69 72 76 78 80 81 82 82 84 85 85 86 86 87 87 86 84 83 81 78 74 68 62
21 22 23 24 26 27 28 30 32 35 37 41 47 50 54 58 61 64 68 72 75 77 79 80 81 81 80 78 77 77 78 79 82 84 87 89 90 89 86 84 82 78 73 67
23 23 23 24 26 30 30 33 37 41 44 48 52 56 60 64 67 71 75 78 79 78 75 70 65 60 55 52 50 49 49 50 52 55 59 62 66 69 69 69 70 69 67 65
24 23 25 26 27 30 35 37 41 46 51 55 58 62 67 71 74 75 77 76 70 60 52 45 40 38 37 38 39 40 40 40 40 41 42 42 42 43 44 47 51 54 57 58
24 25 26 27 30 33 36 40 44 49 54 58 62 67 71 75 77 76 68 55 46 39 35 35 36 39 41 42 43 43 44 44 44 44 43 41 38 36 34 34 36 41 46 50
26 27 28 30 33 38 42 45 50 54 59 63 67 71 75 76 71 59 46 38 35 35 37 40 42 43 44 45 46 46 47 47 48 48 46 43 39 34 30 28 29 31 35 41
27 29 32 34 36 41 46 50 54 58 62 66 71 76 77 71 57 42 35 34 36 40 43 45 46 46 47 48 49 49 49 50 50 50 48 45 42 37 32 27 26 27 28 31
30 32 35 37 40 44 48 52 56 60 65 71 76 78 73 59 44 36 35 37 40 43 46 49 49 49 50 51 52 53 52 51 51 51 48 45 42 39 35 30 26 24 24 25
34 36 39 42 45 48 52 56 60 64 69 74 78 75 63 48 38 37 38 41 44 47 50 51 52 52 52 52 53 53 52 51 51 48 46 45 43 40 37 32 28 25 24 24
36 38 41 44 48 51 55 59 63 67 71 76 77 69 53 42 38 39 42 46 49 51 53 54 54 54 53 52 51 49 49 48 47 44 41 40 41 40 38 34 30 27 26 26

GEFSCGP_500_meanwind_018.txt.gz
Wind_Speed
2 1 1 6 11 16 16 14 14 13 16 21 25 23 22 27 32 36 40 42 43 43 46 49 51 50 47 44 40 38 37 37 37 35 35 35 33 31 30 30 29 28 26 24
3 5 6 10 11 6 5 8 10 14 19 23 26 28 25 26 30 36 37 37 38 41 43 46 48 47 43 42 39 38 37 36 36 36 36 35 33 31 30 29 27 26 23 20
7 7 9 10 6 5 7 10 13 15 17 19 20 20 17 19 24 30 32 33 34 38 40 42 42 37 34 32 31 34 35 36 36 36 36 34 32 31 29 27 25 23 21 19
4 6 12 10 7 8 9 13 15 17 18 17 15 15 15 18 22 28 31 33 35 36 38 40 34 27 26 23 22 26 31 34 36 36 35 33 31 29 28 25 23 22 21 21
5 8 10 8 8 10 11 12 13 11 11 10 10 11 15 20 24 28 29 32 37 38 40 39 37 33 30 33 33 30 32 34 35 35 34 32 30 28 27 25 24 23 23 23
3 8 9 8 8 9 10 8 6 11 14 18 20 14 16 20 24 28 30 33 35 36 36 36 37 37 35 37 36 37 36 35 34 34 32 31 29 28 27 27 27 27 27 27
2 2 7 11 10 9 9 8 8 12 21 23 16 7 17 20 22 25 28 30 33 35 36 36 36 36 37 38 39 39 38 36 35 35 35 34 31 30 29 30 30 31 32 32
8 3 5 12 13 10 8 7 9 13 15 18 19 19 23 25 26 26 28 31 34 37 39 40 40 41 41 42 43 43 42 41 41 40 40 40 38 36 35 35 34 35 36 36
10 7 8 12 12 9 10 9 10 14 13 13 18 28 30 29 27 27 29 35 39 40 42 43 44 46 47 48 48 49 49 49 48 48 47 47 46 45 44 43 42 41 40 40
7 7 6 8 10 13 15 15 15 16 16 17 17 29 33 33 34 35 37 39 41 43 45 46 48 50 51 53 54 54 55 56 56 56 55 55 54 53 53 52 51 50 48 47
7 7 5 8 10 12 16 17 19 19 19 21 22 29 32 34 37 39 40 42 44 45 47 49 52 54 55 56 58 59 59 60 61 61 61 61 61 61 61 60 59 58 56 54
10 9 8 10 14 13 16 20 23 25 24 23 24 31 31 34 37 40 43 46 48 49 51 53 55 57 58 60 61 62 63 64 64 65 65 66 66 66 66 65 65 64 63 61
11 12 11 12 15 17 18 20 24 26 28 28 28 34 34 36 38 41 45 48 51 54 57 60 61 62 63 65 66 67 68 69 69 70 70 70 70 69 69 68 67 67 66 64
13 14 14 13 14 17 19 21 23 25 27 29 31 37 41 40 41 46 50 54 57 60 63 65 67 68 69 70 72 73 74 75 76 76 76 76 75 75 74 73 71 70 69 68
14 14 15 15 15 16 18 20 22 26 29 32 36 39 47 48 50 53 56 59 63 66 69 70 71 73 76 77 78 77 76 74 73 73 75 77 80 81 80 80 79 78 77 75
18 17 16 16 16 17 20 20 24 30 35 38 41 43 50 54 57 59 62 65 68 71 72 74 76 77 76 73 68 62 57 53 51 49 48 50 54 60 66 72 76 79 80 81
19 19 18 17 16 19 23 25 30 35 39 44 47 49 52 55 58 61 64 67 71 73 76 78 75 69 60 50 43 39 37 36 36 35 34 34 34 34 35 39 46 54 62 70
20 19 20 19 20 22 26 28 34 38 42 47 50 53 56 59 61 63 66 71 75 77 76 69 59 48 41 37 37 38 40 41 42 41 41 41 39 36 34 33 32 33 35 41
23 22 22 22 22 28 32 34 39 44 48 53 55 57 60 63 65 67 71 75 75 70 62 52 44 39 38 39 40 42 43 45 45 45 45 44 43 41 39 36 34 34 34 34
25 24 23 25 28 31 36 41 45 49 51 56 58 60 62 65 68 70 72 71 64 56 48 42 39 39 40 43 45 47 48 49 49 49 48 47 46 45 43 42 40 38 37 35
22 24 26 28 30 36 39 44 46 49 52 54 56 59 64 68 72 72 68 60 52 45 41 40 42 44 47 49 51 52 52 52 52 51 50 49 48 47 46 45 43 40 39 37
23 26 28 30 33 38 42 46 50 53 57 59 62 65 69 71 71 66 59 51 45 42 42 44 47 50 52 54 56 55 55 54 53 52 51 50 48 48 47 45 43 41 39 38
24 26 30 33 36 40 45 49 52 56 59 62 65 68 71 72 68 60 52 46 45 46 47 50 53 55 57 58 58 58 57 55 54 52 50 49 47 45 44 42 41 40 38 37
29 29 31 34 38 42 47 50 53 56 60 63 66 70 71 69 62 54 49 48 49 51 54 56 58 59 58 57 57 56 55 53 51 48 46 44 43 41 39 38 38 37 36 35
28 31 34 38 42 44 47 51 54 57 61 64 68 70 70 65 57 51 50 51 54 56 57 57 57 55 54 53 52 50 49 47 45 44 42 39 37 35 34 33 33 32 31 31
30 33 36 40 44 47 50 52 56 59 62 65 68 69 67 59 53 51 53 56 57 57 57 55 54 53 51 49 46 44 43 42 40 37 35 32 31 30 29 28 28 27 27 27

GEFSCGP_500_meanwind_024.txt.gz
Wind_Speed
13 12 11 11 10 10 11 13 14 14 13 12 14 19 23 26 28 31 35 38 40 42 43 44 46 47 49 49 49 46 43 34 21 17 21 24 24 23 22 22 23 24 24 23
11 9 7 6 6 9 11 15 18 20 20 19 21 23 27 29 31 33 35 38 40 42 43 43 43 45 45 44 42 40 36 28 20 19 18 20 21 21 23 23 24 24 24 24
9 6 4 4 6 9 11 14 16 19 24 26 27 29 31 33 34 34 34 34 34 35 37 39 40 41 41 41 41 38 33 28 22 21 20 21 21 22 23 23 23 23 23 23
7 5 4 4 5 7 9 12 15 14 17 20 23 28 31 32 34 35 33 32 31 32 35 37 38 39 40 40 39 37 33 29 26 22 20 21 20 21 22 22 22 23 23 23
5 4 1 2 4 7 8 9 11 12 12 13 15 19 21 25 28 31 31 30 30 31 33 36 38 40 41 42 40 38 35 31 29 28 26 24 24 23 23 23 24 24 25 25
4 2 1 4 6 8 9 9 8 8 9 10 13 15 18 22 22 23 25 26 28 30 34 37 40 42 44 45 44 41 39 36 35 34 33 32 31 30 29 29 29 29 28 28
2 1 1 3 5 7 8 8 7 6 9 12 16 19 21 23 22 21 21 22 25 29 33 38 41 44 46 47 47 46 45 43 42 40 39 39 38 38 37 37 36 35 34 33
6 3 2 4 6 7 8 10 11 12 15 18 20 21 23 26 26 27 28 30 32 35 39 42 45 47 48 49 49 48 47 47 46 46 46 45 44 44 44 43 43 43 42 41
9 6 5 6 8 10 12 13 15 16 18 20 22 22 24 26 29 31 33 35 38 42 45 48 50 52 53 54 54 53 52 51 50 50 51 51 51 50 50 49 49 48 48 47
11 9 7 8 11 14 16 17 18 19 20 22 24 26 29 30 33 35 37 40 43 47 50 53 56 58 59 61 61 61 60 59 57 55 55 55 55 55 55 54 54 53 53 53
12 11 11 12 13 14 15 17 18 19 22 24 28 30 32 35 37 39 42 45 47 50 53 55 58 60 63 65 66 68 68 68 66 65 63 62 61 60 60 59 59 58 58 57
12 12 13 15 15 17 18 18 18 20 22 25 29 33 36 39 41 43 46 48 51 53 56 58 60 62 65 68 70 72 74 75 75 74 72 70 68 66 64 63 63 63 63 63
12 12 13 14 15 17 18 18 18 19 22 26 30 34 37 40 43 46 48 51 53 56 58 61 63 66 69 71 73 75 76 76 76 74 71 66 61 59 58 58 59 61 63 65
12 13 12 12 13 15 16 16 16 19 23 27 31 35 37 41 45 48 51 54 57 60 62 65 68 70 71 71 71 71 69 67 64 59 54 48 43 41 39 40 43 46 52 58
13 12 12 13 14 14 14 15 18 22 26 30 33 36 40 44 47 51 54 57 60 63 65 67 68 68 67 65 63 60 57 54 51 48 43 39 36 34 32 32 32 33 35 40
13 12 13 14 16 15 15 18 22 25 28 31 34 38 42 45 48 51 55 57 60 62 64 63 62 61 60 58 56 54 52 50 47 45 43 41 40 38 37 35 34 33 32 32
12 12 13 15 18 18 18 21 25 29 32 35 39 43 46 48 51 55 58 60 62 62 59 58 57 57 56 55 54 53 52 51 49 48 46 46 45 44 43 41 39 37 36 36
13 14 16 19 20 20 22 26 30 34 37 40 43 46 49 53 54 56 59 60 58 55 55 56 56 57 57 57 56 55 54 53 52 52 52 51 51 49 47 46 44 41 40 38
17 19 21 24 26 26 27 30 33 37 40 43 45 48 51 53 53 54 56 55 54 54 55 56 57 58 58 57 57 56 54 53 53 52 53 53 53 53 51 49 47 45 42 40
20 21 23 25 27 29 31 33 36 39 41 43 46 49 52 55 56 55 54 52 51 52 53 55 56 57 57 57 56 54 52 51 50 50 50 50 52 52 51 49 47 46 44 42
18 20 22 25 27 29 32 35 37 39 42 45 49 53 56 57 57 56 52 49 49 50 53 55 56 56 56 56 54 52 50 49 47 46 45 45 46 48 48 48 46 45 44 42
19 22 25 27 30 32 34 36 39 42 45 48 51 54 55 56 55 53 50 48 48 50 53 55 56 57 57 56 54 51 48 45 43 41 39 38 39 40 41 42 42 42 42 40
20 22 25 27 30 32 34 38 42 45 47 48 51 53 55 55 54 51 48 47 48 50 53 55 56 57 56 55 54 50 47 44 41 38 35 33 32 32 34 35 36 37 37 37
20 22 24 26 29 32 35 39 42 43 44 47 50 53 54 54 53 49 46 46 47 50 52 54 56 56 56 55 53 51 47 44 40 35 30 27 25 25 25 27 29 30 31 32
20 22 23 25 29 32 34 37 39 41 43 46 49 52 54 54 53 49 45 45 47 49 51 53 55 56 56 55 53 51 48 44 40 34 28 24 21 19 19 19 22 24 26 27
21 23 25 27 30 32 34 37 40 42 44 47 50 52 53 54 52 48 45 44 45 47 50 52 54 56 56 55 54 52 48 45 40 34 28 23 20 15 12 11 12 16 19 22

GEFSCGP_500_meanwind_030.txt.gz
Wind_Speed
14 15 16 17 17 17 17 18 20 21 22 22 21 18 17 18 21 24 27 29 32 34 36 38 40 42 43 43 41 39 38 36 36 36 36 34 29 23 17 18 22 25 27 28
12 13 13 14 15 14 15 16 18 20 20 21 21 20 20 21 23 26 29 32 35 37 39 41 43 43 42 42 41 39 38 36 36 37 36 34 29 24 21 19 19 21 25 27
8 10 9 10 11 11 13 14 15 16 17 18 20 20 22 25 28 30 32 35 37 39 41 42 41 41 41 40 40 40 39 39 38 38 36 34 32 29 24 21 21 22 24 27
5 5 5 7 9 9 9 10 10 12 13 14 15 16 19 22 25 28 29 31 32 32 34 34 35 36 38 39 40 41 41 41 40 39 38 36 34 31 29 27 27 27 27 29
2 3 3 6 7 7 6 6 7 7 8 10 11 14 15 19 21 23 25 27 28 30 31 31 33 35 36 39 41 42 43 43 43 42 41 40 38 36 34 33 33 32 31 31
1 2 4 6 6 6 6 6 6 6 6 8 11 13 16 18 21 23 25 27 29 31 32 33 35 36 38 40 41 43 43 44 44 45 44 43 43 42 41 40 38 38 38 37
1 2 4 5 6 7 7 7 7 7 8 10 13 15 17 19 22 25 27 29 31 32 33 34 36 37 39 40 42 43 44 44 45 46 46 47 47 47 47 46 46 45 45 44
1 2 4 6 8 9 9 10 11 12 12 14 16 18 20 22 24 27 29 31 33 34 35 36 37 38 39 40 41 43 44 44 45 46 47 48 49 50 51 52 52 52 51 51
3 4 6 8 9 10 11 12 14 16 17 19 19 21 22 24 27 30 32 34 35 37 38 40 41 42 42 43 43 43 43 43 43 43 44 46 49 51 53 55 56 56 57 57
6 7 8 9 11 11 12 14 16 17 19 21 22 22 24 26 30 33 36 37 39 41 43 44 45 46 47 47 46 44 42 40 40 41 42 43 45 47 50 54 58 60 61 62
8 10 10 11 11 12 14 15 17 18 19 21 23 25 27 31 34 36 38 40 43 45 46 48 49 50 50 49 48 47 46 47 48 48 48 48 48 47 47 48 51 56 61 64
12 13 13 12 12 12 14 16 17 19 20 22 25 27 31 34 36 38 40 43 45 48 50 50 51 51 50 49 48 49 51 52 53 54 54 54 53 51 50 48 48 50 53 58
13 13 13 12 12 13 15 16 17 19 20 23 26 29 32 35 37 39 42 45 46 49 49 50 51 49 48 47 48 50 52 54 56 58 58 57 55 54 52 50 49 48 49 51
14 13 12 11 11 12 13 15 18 20 22 25 28 30 32 35 37 40 42 45 47 48 49 49 48 46 45 47 48 51 53 56 58 59 60 60 58 56 53 51 49 47 46 47
15 14 13 12 12 13 15 17 20 22 25 27 29 31 33 36 38 41 43 45 47 47 48 47 45 44 45 47 49 52 55 57 59 61 61 61 60 57 54 51 49 46 45 45
15 15 15 14 15 16 18 21 22 24 26 28 30 32 35 37 40 43 45 47 47 48 47 45 43 43 44 47 50 53 56 58 60 61 62 61 60 58 54 50 47 45 45 45
15 16 16 16 16 17 20 22 24 25 27 30 32 34 36 38 41 45 46 47 48 48 46 44 42 43 45 48 51 54 58 60 61 62 61 60 58 55 52 49 45 44 44 46
14 15 17 17 18 20 22 24 25 26 28 31 34 36 38 40 42 46 48 49 49 47 45 42 42 43 47 50 53 57 59 61 62 61 61 59 56 53 50 47 44 42 42 44
14 16 18 19 21 22 24 26 27 29 30 33 36 39 41 41 41 44 46 48 48 47 45 43 43 45 48 51 54 58 60 61 61 61 60 57 55 51 47 43 40 38 38 39
16 17 20 22 23 25 26 27 29 31 32 35 38 40 43 44 45 45 46 48 49 48 46 45 45 46 49 52 55 58 60 60 60 59 57 55 51 46 41 36 34 33 33 35
17 19 21 23 23 24 26 28 31 33 35 37 39 41 44 46 48 49 49 51 52 50 48 46 45 47 49 52 56 57 59 59 59 57 55 52 48 43 37 32 28 27 27 31
19 21 22 23 23 25 26 29 31 32 34 36 39 41 43 45 47 49 49 51 52 51 48 46 45 46 49 53 56 57 58 58 56 55 52 49 46 40 34 28 23 22 22 26
20 21 22 22 23 25 27 29 31 33 34 37 39 41 43 45 47 49 50 50 52 52 49 46 45 46 49 52 55 56 57 55 53 52 50 47 44 38 32 26 20 17 18 21
20 21 21 22 23 25 27 29 31 33 35 37 40 42 44 46 48 50 50 51 51 52 50 47 45 45 47 50 53 55 55 53 51 51 48 46 42 37 31 24 18 13 11 13
20 20 21 22 24 26 28 30 32 34 36 38 40 43 44 46 48 50 50 51 51 52 50 47 45 44 46 48 51 53 53 51 50 49 47 44 41 37 31 25 19 13 7 6
20 20 22 23 25 27 29 31 33 35 36 38 40 43 44 46 47 49 50 51 51 51 51 47 44 43 44 47 49 50 51 49 48 47 45 42 40 36 32 27 21 15 9 3

GEFSCGP_500_meanwind_036.txt.gz
Wind_Speed
8 7 7 9 9 9 9 8 11 15 15 17 18 19 20 20 20 20 20 20 22 24 27 29 32 34 35 37 38 38 39 39 38 38 38 38 37 37 36 36 35 33 29 28
4 6 9 8 7 7 7 6 10 12 13 14 14 15 15 16 17 18 20 21 23 25 28 30 31 32 33 35 35 36 36 37 38 38 39 39 39 39 38 38 36 33 30 28
4 8 7 6 5 4 5 5 9 10 10 10 10 10 11 12 14 16 17 19 22 24 26 28 30 32 33 35 35 36 37 38 39 40 40 41 41 41 40 39 37 35 34 31
5 6 5 4 5 4 5 8 8 9 8 9 8 11 11 13 15 17 19 21 23 25 27 29 31 33 35 36 37 38 39 40 42 42 43 43 43 43 42 41 40 39 37 35
4 4 4 4 5 5 7 7 8 9 9 10 10 11 15 16 18 20 22 24 26 28 29 31 33 35 36 37 39 40 41 43 44 45 45 45 45 45 44 44 43 42 41 40
3 2 2 3 5 6 6 7 8 9 10 11 13 13 18 19 21 23 25 26 27 28 30 32 34 35 36 38 40 41 42 43 44 45 45 46 46 46 45 45 44 44 44 43
4 3 3 4 5 6 7 7 9 10 9 13 18 16 19 20 22 24 25 26 28 29 31 33 34 35 36 38 39 41 41 42 43 43 43 43 43 42 42 42 42 43 43 44
4 5 5 5 6 7 7 7 8 9 11 16 20 18 18 19 22 23 25 27 29 31 32 33 35 36 37 38 39 40 40 40 40 40 39 39 39 39 39 40 40 41 42 44
4 6 6 7 7 8 9 9 10 11 12 12 16 17 16 19 22 24 26 28 30 32 33 35 36 38 38 39 39 39 38 37 36 35 35 35 36 37 38 39 40 41 43 44
5 7 7 7 7 7 8 9 9 9 10 10 14 19 20 21 23 26 28 30 32 34 35 37 38 39 39 39 39 39 37 35 34 34 34 35 37 38 40 42 44 45 47 48
6 7 8 7 7 8 8 8 9 9 10 11 12 18 20 22 24 27 30 31 33 35 37 39 39 40 40 40 40 39 37 35 35 35 36 38 40 42 44 46 48 49 50 52
7 7 7 7 7 8 8 9 9 10 12 13 15 19 20 23 25 28 31 33 35 37 39 40 40 41 41 41 40 39 38 37 36 37 38 41 44 46 48 50 52 53 54 55
7 7 8 9 10 10 10 10 11 12 13 14 16 21 22 24 27 30 32 34 36 39 40 41 41 41 41 41 41 39 38 38 38 40 42 45 48 50 52 54 56 56 56 56
7 7 6 6 9 12 12 12 13 13 15 16 18 20 24 26 30 32 34 36 38 40 41 41 41 42 42 42 41 40 39 39 40 42 45 47 50 52 54 56 56 56 55 55
8 8 8 9 11 13 14 14 15 15 16 17 20 22 25 28 31 34 35 37 39 41 42 43 43 43 42 42 41 40 39 40 41 44 47 49 51 54 55 56 56 55 55 54
9 9 10 12 13 15 15 15 16 16 18 19 21 24 27 29 32 35 36 38 40 42 43 43 44 43 43 43 42 40 39 40 42 45 48 50 52 54 55 55 55 54 53 52
10 11 12 14 15 16 15 15 16 17 20 21 24 26 29 30 33 36 38 40 42 43 44 44 44 44 44 43 42 40 40 41 43 47 49 52 53 54 54 54 53 51 49 48
12 14 14 15 16 16 16 16 16 18 21 23 25 27 29 31 34 36 38 40 42 44 45 46 46 45 45 44 43 41 41 42 45 48 50 52 53 53 53 52 50 48 46 43
15 15 16 17 18 17 17 16 18 20 21 24 26 28 30 32 36 38 40 42 44 46 47 48 48 47 47 45 43 42 42 43 46 49 51 52 53 52 52 50 47 44 40 36
16 17 18 19 19 18 19 19 20 22 23 25 27 29 31 33 36 39 42 44 46 47 48 49 49 48 48 46 44 43 43 44 47 49 51 52 52 52 50 47 44 40 35 31
17 18 18 19 20 20 20 20 22 24 26 27 29 31 33 36 38 40 42 44 47 48 49 49 49 49 48 47 45 44 43 45 47 49 50 51 51 51 48 45 41 36 32 27
19 20 19 19 19 22 21 22 23 24 26 28 30 32 34 37 40 42 44 46 48 49 49 49 48 48 48 47 45 44 43 44 46 48 49 49 49 49 46 43 39 34 30 24
19 20 20 20 20 21 22 23 24 26 27 29 31 33 36 38 41 44 46 48 49 50 49 48 48 47 47 47 46 44 43 44 46 47 48 48 47 47 44 42 37 32 28 22
20 19 19 20 21 22 23 24 25 27 28 30 32 34 37 40 43 45 48 49 50 50 49 48 47 47 46 46 45 44 43 43 45 46 46 46 45 44 43 40 36 31 26 21
21 20 19 20 21 22 23 24 26 28 29 31 33 35 38 41 44 47 49 50 49 49 49 48 47 46 46 45 44 43 42 42 43 44 45 44 44 43 41 38 34 31 26 21
22 20 20 20 21 22 24 25 27 29 30 32 34 37 39 43 46 48 49 49 49 49 48 47 46 46 45 44 43 42 41 41 42 42 43 43 42 41 39 36 33 29 26 21

GEFSCGP_500_meanwind_042.txt.gz
Wind_Speed
3 3 6 8 8 9 9 10 12 13 15 16 20 24 21 19 19 18 17 17 17 18 19 21 23 25 27 30 32 34 35 37 38 39 40 40 40 40 41 41 40 39 40 40
6 11 7 3 6 10 9 11 14 18 20 17 17 18 16 13 13 13 13 14 15 17 18 21 23 25 27 29 31 32 34 36 38 39 40 40 41 41 42 42 41 41 41 42
12 10 5 4 7 9 10 14 15 17 17 14 13 14 12 10 9 10 13 15 17 18 20 23 25 26 28 30 32 34 35 36 38 40 41 41 41 41 42 42 42 41 41 42
5 7 9 7 8 9 12 13 14 14 15 16 15 16 11 10 10 12 15 17 19 20 22 24 26 28 30 32 34 35 35 36 38 39 40 40 40 41 41 42 42 42 42 42
3 5 7 7 7 8 10 12 12 15 19 21 22 22 14 12 12 14 18 20 21 22 24 26 27 29 31 33 34 36 36 37 38 39 40 41 41 41 42 42 42 41 40 40
2 3 5 5 6 7 8 11 14 18 21 21 17 15 10 13 19 20 21 22 23 24 26 27 28 29 31 33 34 36 37 38 39 39 40 41 41 41 41 41 40 39 38 38
3 2 3 5 7 8 8 10 15 20 23 20 13 11 10 15 22 23 24 25 25 26 28 29 30 31 32 34 35 36 37 38 39 40 40 41 41 41 41 40 39 39 38 38
10 7 7 8 9 9 8 10 15 18 21 23 17 11 14 18 20 21 23 24 26 27 29 30 31 32 34 35 36 37 37 38 39 40 41 41 41 41 40 40 39 39 39 39
9 8 10 12 10 9 7 8 11 13 13 16 18 18 18 20 21 22 23 25 26 28 29 31 32 34 35 37 37 38 38 39 39 40 40 41 41 41 40 40 40 40 40 41
8 7 8 13 10 9 10 9 9 6 8 10 14 20 20 22 23 23 24 26 28 29 30 31 33 35 36 38 39 39 40 39 39 40 40 41 41 40 40 40 41 41 42 42
8 6 5 8 10 10 10 9 9 6 6 6 11 21 22 23 23 23 25 27 28 30 31 32 34 35 37 39 40 41 41 41 40 41 41 41 41 40 40 40 40 41 42 44
8 5 3 6 8 9 10 11 10 9 8 7 9 22 23 24 23 24 26 27 29 30 31 33 35 37 39 40 41 42 42 42 42 42 42 42 41 40 40 41 41 42 43 45
9 7 5 8 10 9 10 13 12 10 8 9 9 20 25 26 26 27 27 28 30 31 33 35 37 39 40 42 42 43 43 43 43 44 43 42 42 41 41 41 42 44 46 48
10 9 6 7 10 11 11 12 14 13 11 12 14 19 25 25 25 26 27 29 31 33 35 38 40 41 42 43 43 44 44 44 44 44 44 43 42 42 42 42 44 46 48 50
10 9 9 8 10 11 12 13 14 14 14 14 17 20 24 24 25 27 28 30 33 35 38 40 42 43 43 44 44 45 45 45 45 45 44 43 43 42 42 43 44 47 49 50
10 9 10 8 9 11 13 15 16 16 17 18 19 21 24 25 27 28 29 32 34 37 39 41 43 44 44 45 45 45 46 46 46 45 44 44 43 42 42 44 45 47 49 49
12 11 10 9 9 10 13 16 18 19 19 21 22 24 25 25 28 29 30 33 35 38 40 42 44 45 45 46 46 46 46 46 46 45 45 44 43 42 43 44 46 47 48 49
13 12 12 11 9 10 15 18 20 21 21 21 23 25 26 28 31 31 31 34 37 40 42 44 45 45 46 46 46 47 47 47 46 46 45 44 43 43 43 45 46 47 47 47
16 15 15 14 12 11 15 22 21 22 23 21 22 24 25 28 32 35 34 37 40 42 43 44 45 46 46 46 47 47 47 47 47 46 44 44 43 43 44 45 46 46 46 44
19 19 18 17 16 13 16 21 21 24 27 23 24 26 28 29 30 34 36 38 40 42 43 44 44 46 46 47 47 47 48 47 46 45 44 43 43 44 44 45 45 44 43 41
23 22 20 20 19 18 23 23 23 26 27 26 27 28 29 30 31 33 35 38 40 42 43 43 45 46 47 48 48 48 48 47 46 45 44 43 43 44 44 44 43 43 41 39
19 19 21 22 21 22 27 27 27 27 26 26 27 28 29 30 31 34 36 39 41 42 42 43 44 46 48 49 48 48 48 47 46 45 43 42 43 43 43 42 41 40 38 37
19 20 21 21 24 28 29 29 29 28 27 26 27 28 29 30 32 35 37 39 41 42 42 43 44 46 47 49 49 49 48 47 45 44 42 42 42 42 41 40 39 38 37 36
20 25 24 22 22 26 28 29 29 28 27 27 27 28 29 31 33 36 38 39 40 41 42 43 43 45 47 48 49 49 48 46 45 44 42 41 41 41 39 39 39 37 35 35
21 24 26 25 24 26 26 27 28 28 27 27 27 29 30 32 34 37 38 39 40 41 41 42 43 45 47 48 49 49 48 46 44 43 42 40 40 40 38 37 37 36 34 33
23 24 25 25 26 27 27 28 28 27 27 27 28 30 32 34 36 37 39 39 40 40 41 42 43 45 47 49 49 49 48 46 44 43 41 40 39 38 37 36 36 35 33 30